| time (UTC) | temp C | wind direction | speed KPH | gust KPH | rain 1hr cm | rain 24hr cm | rain mn cm | humidity % | barometer mb |
| 20260508023113 | 10 | 296 | 0.0 | 3.2 | 0.00 | 0.00 | 0.00 | 49 | 1014.8 |
| 20260508021513 | 10 | 281 | 0.0 | 4.8 | 0.00 | 0.00 | 0.00 | 50 | 1014.8 |
| 20260508020013 | 10 | 281 | 0.0 | 1.6 | 0.00 | 0.00 | 0.00 | 50 | 1015.2 |
| 20260508014512 | 10 | 281 | 0.0 | 4.8 | 0.00 | 0.00 | 0.00 | 54 | 1014.9 |
| 20260508013011 | 10 | 263 | 0.0 | 3.2 | 0.00 | 0.00 | 0.00 | 57 | 1014.9 |
| 20260508011511 | 10 | 236 | 0.0 | 0.0 | 0.00 | 0.00 | 0.00 | 55 | 1015.1 |
| 20260508010013 | 11 | 236 | 0.0 | 0.0 | 0.00 | 0.00 | 0.00 | 55 | 1014.9 |
| 20260508004610 | 11 | 236 | 0.0 | 3.2 | 0.00 | 0.00 | 0.00 | 54 | 1014.8 |
| 20260508003009 | 12 | 192 | 0.0 | 0.0 | 0.00 | 0.00 | 0.00 | 51 | 1014.9 |
| 20260508001511 | 14 | 192 | 0.0 | 0.0 | 0.00 | 0.00 | 0.00 | 44 | 1015.1 |
| 20260508000010 | 15 | 192 | 0.0 | 0.0 | 0.00 | 0.00 | 0.00 | 44 | 1014.9 |
| 20260507234508 | 16 | 239 | 0.0 | 3.2 | 0.00 | 0.00 | 0.00 | 42 | 1014.9 |
| 20260507233009 | 16 | 153 | 0.0 | 8.0 | 0.00 | 0.00 | 0.00 | 41 | 1014.8 |
| 20260507231507 | 17 | 105 | 0.0 | 4.8 | 0.00 | 0.00 | 0.00 | 39 | 1014.6 |
| 20260507230108 | 17 | 30 | 3.2 | 8.0 | 0.00 | 0.00 | 0.00 | 38 | 1014.4 |
| 20260507224509 | 17 | 200 | 3.2 | 12.9 | 0.00 | 0.00 | 0.00 | 34 | 1014.2 |
| 20260507223006 | 18 | 86 | 1.6 | 12.9 | 0.00 | 0.00 | 0.00 | 31 | 1013.9 |
| 20260507221505 | 17 | 215 | 3.2 | 14.5 | 0.00 | 0.00 | 0.00 | 30 | 1013.7 |
| 20260507220006 | 18 | 207 | 9.7 | 19.3 | 0.00 | 0.00 | 0.00 | 30 | 1013.7 |
| 20260507214504 | 18 | 186 | 8.0 | 17.7 | 0.00 | 0.00 | 0.00 | 25 | 1013.7 |
| 20260507213012 | 19 | 186 | 3.2 | 14.5 | 0.00 | 0.00 | 0.00 | 22 | 1013.3 |
| 20260507211504 | 19 | 175 | 3.2 | 12.9 | 0.00 | 0.00 | 0.00 | 19 | 1013.2 |
| 20260507210022 | 20 | 210 | 6.4 | 14.5 | 0.00 | 0.00 | 0.00 | 18 | 1013.1 |
| 20260507204502 | 20 | 186 | 4.8 | 16.1 | 0.00 | 0.00 | 0.00 | 18 | 1013.2 |
| 20260507203002 | 20 | 155 | 4.8 | 12.9 | 0.00 | 0.00 | 0.00 | 17 | 1012.9 |
| 20260507201604 | 21 | 192 | 4.8 | 16.1 | 0.00 | 0.00 | 0.00 | 16 | 1013.1 |
| 20260507200107 | 22 | 157 | 6.4 | 16.1 | 0.00 | 0.00 | 0.00 | 14 | 1013.3 |
| 20260507194558 | 22 | 186 | 6.4 | 16.1 | 0.00 | 0.00 | 0.00 | 14 | 1013.3 |
| 20260507193123 | 22 | 156 | 3.2 | 17.7 | 0.00 | 0.00 | 0.00 | 14 | 1013.1 |
| 20260507191600 | 22 | 201 | 6.4 | 14.5 | 0.00 | 0.00 | 0.00 | 14 | 1013.5 |
| 20260507190054 | 22 | 158 | 6.4 | 14.5 | 0.00 | 0.00 | 0.00 | 15 | 1013.4 |
| 20260507184555 | 21 | 138 | 8.0 | 16.1 | 0.00 | 0.00 | 0.00 | 16 | 1013.5 |
| 20260507183059 | 21 | 139 | 9.7 | 17.7 | 0.00 | 0.00 | 0.00 | 17 | 1013.7 |
| 20260507181549 | 22 | 184 | 6.4 | 19.3 | 0.00 | 0.00 | 0.00 | 16 | 1013.5 |
| 20260507180047 | 21 | 146 | 4.8 | 16.1 | 0.00 | 0.00 | 0.00 | 16 | 1013.8 |
| 20260507174545 | 21 | 152 | 6.4 | 16.1 | 0.00 | 0.00 | 0.00 | 19 | 1014.0 |
| 20260507173103 | 21 | 180 | 6.4 | 17.7 | 0.00 | 0.00 | 0.00 | 19 | 1014.3 |
| 20260507171544 | 21 | 145 | 4.8 | 14.5 | 0.00 | 0.00 | 0.00 | 20 | 1014.5 |
| 20260507170042 | 20 | 149 | 4.8 | 16.1 | 0.00 | 0.00 | 0.00 | 23 | 1015.0 |
| 20260507164534 | 20 | 158 | 4.8 | 16.1 | 0.00 | 0.00 | 0.00 | 25 | 1015.2 |
| 20260507163036 | 20 | 128 | 1.6 | 8.0 | 0.00 | 0.00 | 0.00 | 26 | 1015.2 |
| 20260507161532 | 21 | 86 | 3.2 | 8.0 | 0.00 | 0.00 | 0.00 | 22 | 1015.8 |
| 20260507160053 | 20 | 165 | 0.0 | 1.6 | 0.00 | 0.00 | 0.00 | 25 | 1015.8 |
| 20260507154524 | 20 | 161 | 0.0 | 1.6 | 0.00 | 0.00 | 0.00 | 32 | 1015.8 |
| 20260507153021 | 18 | 317 | 0.0 | 4.8 | 0.00 | 0.00 | 0.00 | 36 | 1016.1 |
| 20260507151517 | 18 | 216 | 0.0 | 3.2 | 0.00 | 0.00 | 0.00 | 39 | 1016.5 |
| 20260507150015 | 17 | 274 | 1.6 | 6.4 | 0.00 | 0.00 | 0.00 | 44 | 1016.7 |
| 20260507144523 | 16 | 13 | 0.0 | 3.2 | 0.00 | 0.00 | 0.00 | 48 | 1017.0 |
| 20260507143007 | 15 | 102 | 1.6 | 9.7 | 0.00 | 0.00 | 0.00 | 50 | 1017.3 |
| 20260507141620 | 15 | 14 | 1.6 | 6.4 | 0.00 | 0.00 | 0.00 | 56 | 1017.3 |
| 20260507140106 | 14 | 322 | 0.0 | 4.8 | 0.00 | 0.00 | 0.00 | 60 | 1017.8 |
| 20260507134601 | 13 | 24 | 0.0 | 3.2 | 0.00 | 0.00 | 0.00 | 64 | 1017.9 |
| 20260507133050 | 13 | 281 | 0.0 | 1.6 | 0.00 | 0.00 | 0.00 | 67 | 1018.2 |
| 20260507131546 | 12 | 281 | 0.0 | 0.0 | 0.00 | 0.00 | 0.00 | 74 | 1018.3 |
| 20260507130044 | 10 | 281 | 0.0 | 0.0 | 0.00 | 0.00 | 0.00 | 81 | 1018.5 |
| 20260507124539 | 8 | 281 | 0.0 | 0.0 | 0.00 | 0.00 | 0.00 | 85 | 1018.7 |
| 20260507123042 | 7 | 281 | 0.0 | 0.0 | 0.00 | 0.00 | 0.00 | 84 | 1018.4 |
| 20260507121534 | 7 | 281 | 0.0 | 0.0 | 0.00 | 0.00 | 0.00 | 84 | 1018.0 |
| 20260507120030 | 8 | 281 | 0.0 | 1.6 | 0.00 | 0.00 | 0.00 | 82 | 1017.9 |
| 20260507114526 | 8 | 281 | 0.0 | 0.0 | 0.00 | 0.00 | 0.00 | 82 | 1017.6 |
| 20260507113028 | 8 | 281 | 0.0 | 4.8 | 0.00 | 0.00 | 0.00 | 84 | 1017.5 |
| 20260507111522 | 8 | 203 | 0.0 | 1.6 | 0.00 | 0.00 | 0.00 | 81 | 1017.2 |
| 20260507110019 | 9 | 215 | 0.0 | 0.0 | 0.00 | 0.00 | 0.00 | 80 | 1017.1 |
| 20260507104517 | 10 | 211 | 0.0 | 3.2 | 0.00 | 0.00 | 0.00 | 81 | 1017.1 |
| 20260507103015 | 10 | 204 | 1.6 | 6.4 | 0.00 | 0.00 | 0.00 | 80 | 1017.0 |
| 20260507101516 | 10 | 192 | 0.0 | 4.8 | 0.00 | 0.00 | 0.00 | 76 | 1016.8 |
| 20260507100013 | 10 | 198 | 0.0 | 1.6 | 0.00 | 0.00 | 0.00 | 76 | 1016.8 |
| 20260507094508 | 10 | 198 | 0.0 | 4.8 | 0.00 | 0.00 | 0.00 | 75 | 1016.6 |
| 20260507093009 | 10 | 146 | 0.0 | 1.6 | 0.00 | 0.00 | 0.00 | 74 | 1016.4 |
| 20260507091503 | 11 | 152 | 0.0 | 1.6 | 0.00 | 0.00 | 0.00 | 70 | 1016.3 |
| 20260507090113 | 11 | 262 | 0.0 | 0.0 | 0.00 | 0.00 | 0.00 | 69 | 1016.1 |
| 20260507084557 | 11 | 263 | 0.0 | 0.0 | 0.00 | 0.00 | 0.00 | 69 | 1016.2 |
| 20260507083057 | 12 | 263 | 0.0 | 6.4 | 0.00 | 0.00 | 0.00 | 68 | 1016.2 |
| 20260507081555 | 12 | 199 | 0.0 | 1.6 | 0.00 | 0.00 | 0.00 | 69 | 1016.1 |
| 20260507080055 | 12 | 160 | 1.6 | 8.0 | 0.00 | 0.00 | 0.00 | 69 | 1016.3 |
| 20260507074558 | 12 | 278 | 3.2 | 12.9 | 0.00 | 0.00 | 0.00 | 69 | 1016.1 |
| 20260507073053 | 12 | 90 | 3.2 | 12.9 | 0.00 | 0.00 | 0.00 | 67 | 1016.0 |
| 20260507071552 | 12 | 175 | 3.2 | 20.9 | 0.00 | 0.00 | 0.00 | 66 | 1016.1 |
| 20260507070053 | 12 | 175 | 8.0 | 22.5 | 0.00 | 0.00 | 0.00 | 69 | 1016.0 |
| 20260507064605 | 12 | 161 | 8.0 | 24.1 | 0.00 | 0.00 | 0.00 | 68 | 1015.7 |
| 20260507063050 | 12 | 105 | 14.5 | 27.4 | 0.00 | 0.00 | 0.00 | 70 | 1015.5 |
| 20260507061542 | 12 | 159 | 3.2 | 17.7 | 0.00 | 0.00 | 0.00 | 72 | 1015.3 |
| 20260507060041 | 12 | 218 | 3.2 | 11.3 | 0.00 | 0.00 | 0.00 | 71 | 1015.4 |
| 20260507054541 | 12 | 170 | 1.6 | 12.9 | 0.00 | 0.00 | 0.00 | 71 | 1015.4 |
| 20260507053037 | 12 | 7 | 4.8 | 16.1 | 0.00 | 0.00 | 0.00 | 70 | 1015.4 |
| 20260507051533 | 13 | 23 | 0.0 | 6.4 | 0.00 | 0.00 | 0.00 | 65 | 1015.5 |
| 20260507050038 | 13 | 180 | 4.8 | 16.1 | 0.00 | 0.00 | 0.00 | 65 | 1015.6 |
| 20260507044530 | 13 | 180 | 4.8 | 27.4 | 0.00 | 0.00 | 0.00 | 66 | 1015.6 |
| 20260507043029 | 13 | 152 | 8.0 | 17.7 | 0.00 | 0.00 | 0.00 | 65 | 1015.5 |
| 20260507041539 | 13 | 90 | 4.8 | 22.5 | 0.00 | 0.00 | 0.00 | 65 | 1015.5 |
| 20260507040022 | 13 | 144 | 6.4 | 19.3 | 0.00 | 0.00 | 0.00 | 62 | 1015.5 |
| 20260507034521 | 13 | 90 | 6.4 | 22.5 | 0.00 | 0.00 | 0.00 | 60 | 1015.5 |
| 20260507033023 | 13 | 140 | 8.0 | 22.5 | 0.00 | 0.00 | 0.00 | 62 | 1015.5 |
| 20260507031520 | 13 | 151 | 4.8 | 19.3 | 0.00 | 0.00 | 0.00 | 61 | 1015.7 |
| 20260507030019 | 13 | 142 | 6.4 | 25.7 | 0.00 | 0.00 | 0.00 | 59 | 1015.7 |
| 20260507024519 | 13 | 170 | 8.0 | 20.9 | 0.00 | 0.00 | 0.00 | 60 | 1015.4 |